Location: Silent Lake
(44.9206°N, 78.0708°W)
Time: 01:08:37
(UTC-04:00)

Lacrosse 5 - Pass Details

Date: 19 April 2018
Orbit: 717 x 721 km, 57.0° (Epoch: 02 May)

Event Time Altitude Azimuth Distance (km) Brightness Sun altitude
Rises 20:39:59 0° 285° (WNW) 3,123 7.4 -7.0°
Reaches altitude 10° 20:42:53 10° 301° (WNW) 2,204 6.1 -7.5°
Maximum altitude 20:46:47 22° 351° (N) 1,554 4.1 -8.1°
Drops below altitude 10° 20:50:42 10° 42° (NE) 2,206 4.2 -8.7°
Sets 20:53:36 0° 58° (ENE) 3,127 4.9 -9.2°
